{"data":{"norad_id":54871,"intl_designator":"2022-177BD","name":"STARLINK-5397","alt_names":[],"object_type":"PAYLOAD","status":"ACTIVE","operator":null,"country":"US","launch_date":"2022-12-28","launch_site_code":"AFETR","launch_vehicle":null,"mission":null,"orbit_class":"UNKNOWN","rcs_meters":null,"size_class":null,"mass_kg":null,"dimensions":null,"purposes":["comms"],"wikipedia_slug":null,"has_3d_model":false,"image_url":null,"decayed_at":null,"tle_current":{"epoch":"2026-05-25T02:39:27.102240Z","epoch_age_seconds":72248,"freshness":"FRESH","line1":"1 54871U 22177BD  26145.11073035 -.00000363  00000+0 -36857-5 0  9999","line2":"2 54871  43.0059  50.3785 0001114 264.6617  95.4107 15.27573200188774","mean_motion":15.275732,"eccentricity":0.0001114,"inclination_deg":43.0059,"raan_deg":50.3785,"arg_perigee_deg":264.6617,"mean_anomaly_deg":95.4107,"bstar":-3.6857e-6,"rev_number":18877,"period_min":94.267168342571,"perigee_km":482.30511936208,"apogee_km":483.83379616087,"semimajor_km":6861.2064577615,"source":"CELESTRAK","updated_at":"2026-05-25T13:38:17.730007Z"}}}